Flag for Germany Weather past 2 weeks in Neuburg an der Donau, Bavaria, Germany

Now
63 °F

Mild.


Feels Like: 63 °F
Forecast: 58 / 82 °F
Wind: 3 mph from North

Location: Neuburg / Donau

Current Time: Aug 1, 2015 at 10:33:13 AM

Latest Report: Aug 1, 2015 at 9:20 AM


Visibility: N/A

Pressure: 29.95 "Hg

Humidity: 56%

Dew point: 46 °F

Location of Neuburg an der DonauLocation

Historic Weather in Neuburg an der Donau — Graph

°F

Neuburg an der Donau temperature yesterday

Maximum temperature yesterday: 73 °F (at 3:20 PM)
Minimum temperature yesterday: 46 °F (at 6:20 AM)
Average temperature yesterday: 63 °F

Past Weeks' High & Low Weather Summary

 TemperatureHumidityPressure
High95 °F (Jul 22, 3:20 PM)100% (Jul 30, 5:20 AM)30.12 "Hg (Jul 30, 5:20 AM)
Low45 °F (Jul 30, 5:20 AM)22% (Jul 22, 5:20 PM)29.71 "Hg (Jul 25, 3:20 AM)
Average69 °F60%29.95 "Hg
* Reported Jul 17 9:20 AM — Aug 1 9:20 AM, Neuburg an der Donau, Weather by CustomWeather, © 2015

Note: Actual official high and low records may vary slightly from our data, if they occured in-between our weather recording intervals... More about our weather records

Advertising

Neuburg an der Donau weather history for previous 24 hours

 ConditionsComfort  
Time TempWeatherWind HumidityBarometerVisibility
9:20 AM
Sat, Aug 1
63 °FMild.3 mph56%29.95 "HgN/A
8:20 AM61 °FRefreshingly cool.3 mph55%29.92 "HgN/A
7:20 AM57 °FCool.2 mph67%29.92 "HgN/A
6:20 AM57 °FRefreshingly cool.No wind59%29.92 "HgN/A
5:20 AM57 °FRefreshingly cool.1 mph59%29.92 "HgN/A
4:20 AM59 °FRefreshingly cool.3 mph51%29.92 "HgN/A
3:20 AM59 °FRefreshingly cool.1 mph51%29.95 "HgN/A
2:20 AM57 °FRefreshingly cool.2 mph59%29.95 "HgN/A
1:20 AM57 °FRefreshingly cool.2 mph59%29.95 "HgN/A
12:20 AM59 °FRefreshingly cool.2 mph55%29.95 "HgN/A
11:20 PM
Fri, Jul 31
63 °FMild.2 mph49%29.95 "HgN/A
10:20 PM64 °FMild.6 mph43%29.98 "HgN/A
9:20 PM66 °FMild.6 mph40%29.98 "HgN/A
8:20 PM70 °FMild.6 mph33%29.98 "HgN/A
7:20 PM73 °FMild.6 mph27%29.95 "HgN/A
6:20 PM73 °FMild.5 mph27%29.98 "HgN/A
5:20 PM73 °FMild.6 mph27%29.98 "HgN/A
4:20 PM73 °FMild.8 mph25%30.01 "HgN/A
3:20 PM73 °FPartly sunny.6 mph25%30.01 "HgN/A
2:20 PM72 °FScattered clouds.6 mph29%30.04 "HgN/A
1:20 PM70 °FPassing clouds.5 mph31%30.07 "HgN/A
12:20 PM70 °FPassing clouds.5 mph33%30.07 "HgN/A
11:20 AM68 °FPassing clouds.5 mph38%30.09 "HgN/A
10:20 AM64 °FPassing clouds.5 mph46%30.09 "HgN/A
Weather by CustomWeather, © 2015

See weather overviewHow to use our weather pages